Previsão horária em Allende

Hoje, 18 Janeiro, Segunda-feira

Tempo Temperatura Precipitação Vento Pressão Humidade
00:00 +12°C° 0 mm 2 m/s 729 mmHg 46%
01:00 +11°C° 0 mm 3 m/s 729 mmHg 48%
02:00 +11°C° 0 mm 3 m/s 728 mmHg 50%
03:00 +10°C° 0 mm 3 m/s 728 mmHg 55%
04:00 +10°C° 0 mm 3 m/s 728 mmHg 60%
05:00 +10°C° 0 mm 3 m/s 727 mmHg 65%
06:00 +10°C° 0 mm 3 m/s 728 mmHg 63%
07:00 +11°C° 0 mm 3 m/s 728 mmHg 61%
08:00 +12°C° 0 mm 3 m/s 728 mmHg 59%
09:00 +14°C° 0 mm 4 m/s 728 mmHg 52%
10:00 +18°C° 0 mm 4 m/s 727 mmHg 45%
11:00 +20°C° 0 mm 5 m/s 727 mmHg 38%
12:00 +21°C° 0 mm 5 m/s 726 mmHg 35%
13:00 +22°C° 0 mm 5 m/s 725 mmHg 32%
14:00 +25°C° 0 mm 5 m/s 724 mmHg 30%
15:00 +22°C° 0 mm 5 m/s 724 mmHg 34%
16:00 +21°C° 0 mm 4 m/s 724 mmHg 38%
17:00 +20°C° 0 mm 4 m/s 724 mmHg 42%
18:00 +19°C° 0 mm 4 m/s 724 mmHg 48%
19:00 +18°C° 0 mm 4 m/s 724 mmHg 55%
20:00 +17°C° 0 mm 4 m/s 725 mmHg 61%
21:00 +17°C° 0 mm 4 m/s 725 mmHg 66%
22:00 +16°C° 0 mm 3 m/s 725 mmHg 70%
23:00 +16°C° 0 mm 3 m/s 725 mmHg 75%

Amanhã, 19 Janeiro, Terça-feira

Tempo Temperatura Precipitação Vento Pressão Humidade
00:00 +15°C° 0 mm 2 m/s 725 mmHg 81%
01:00 +15°C° 0 mm 2 m/s 725 mmHg 88%
02:00 +14°C° 0 mm 1 m/s 725 mmHg 95%
03:00 +15°C° 0 mm 2 m/s 725 mmHg 96%
04:00 +15°C° 0 mm 2 m/s 726 mmHg 96%
05:00 +16°C° 0 mm 3 m/s 726 mmHg 97%
06:00 +14°C° 0 mm 4 m/s 727 mmHg 90%
07:00 +14°C° 0 mm 5 m/s 728 mmHg 84%
08:00 +13°C° 0 mm 6 m/s 729 mmHg 77%
09:00 +13°C° 0 mm 6 m/s 729 mmHg 74%
10:00 +12°C° 0 mm 7 m/s 730 mmHg 70%
11:00 +12°C° 0 mm 7 m/s 730 mmHg 66%
12:00 +12°C° 0 mm 7 m/s 730 mmHg 66%
13:00 +12°C° 0 mm 8 m/s 730 mmHg 66%
14:00 +12°C° 0 mm 8 m/s 730 mmHg 67%
15:00 +11°C° 0 mm 8 m/s 731 mmHg 69%
16:00 +11°C° 0 mm 8 m/s 731 mmHg 71%
17:00 +11°C° 0 mm 9 m/s 732 mmHg 74%
18:00 +10°C° 0.1 mm 9 m/s 732 mmHg 74%
19:00 +10°C° 0.1 mm 9 m/s 733 mmHg 75%
20:00 +10°C° 0.1 mm 9 m/s 734 mmHg 75%
21:00 +10°C° 0.1 mm 9 m/s 734 mmHg 76%
22:00 +10°C° 0.1 mm 8 m/s 734 mmHg 77%
23:00 +10°C° 0.1 mm 8 m/s 734 mmHg 78%

Depois de amanhã, 20 Janeiro, Quarta-feira

Tempo Temperatura Precipitação Vento Pressão Humidade
00:00 +9°C° 0.3 mm 8 m/s 734 mmHg 78%
01:00 +9°C° 0.3 mm 8 m/s 734 mmHg 78%
02:00 +9°C° 0.3 mm 7 m/s 734 mmHg 78%
03:00 +9°C° 0.4 mm 7 m/s 734 mmHg 79%
04:00 +9°C° 0.4 mm 7 m/s 734 mmHg 80%
05:00 +8°C° 0.4 mm 6 m/s 734 mmHg 81%
06:00 +8°C° 0.1 mm 6 m/s 734 mmHg 80%
07:00 +8°C° 0.1 mm 5 m/s 735 mmHg 79%
08:00 +9°C° 0.1 mm 5 m/s 735 mmHg 77%
09:00 +10°C° 0 mm 4 m/s 735 mmHg 76%
10:00 +10°C° 0 mm 4 m/s 734 mmHg 74%
11:00 +11°C° 0 mm 4 m/s 734 mmHg 73%
12:00 +12°C° 0 mm 3 m/s 733 mmHg 71%
13:00 +13°C° 0 mm 3 m/s 732 mmHg 70%
14:00 +15°C° 0 mm 2 m/s 731 mmHg 69%
15:00 +15°C° 0 mm 2 m/s 731 mmHg 71%
16:00 +15°C° 0 mm 1 m/s 731 mmHg 72%
17:00 +15°C° 0 mm 1 m/s 730 mmHg 74%
18:00 +14°C° 0 mm 1 m/s 731 mmHg 77%
19:00 +13°C° 0 mm 0 m/s 731 mmHg 80%
20:00 +12°C° 0 mm 0 m/s 731 mmHg 84%
21:00 +12°C° 0 mm 0 m/s 731 mmHg 85%
22:00 +13°C° 0 mm 1 m/s 730 mmHg 86%
23:00 +13°C° 0 mm 1 m/s 730 mmHg 87%

21 Janeiro, Quinta-feira

Tempo Temperatura Precipitação Vento Pressão Humidade
00:00 +13°C° 0 mm 1 m/s 730 mmHg 87%
01:00 +13°C° 0 mm 1 m/s 730 mmHg 88%
02:00 +14°C° 0 mm 1 m/s 729 mmHg 88%
03:00 +14°C° 0 mm 1 m/s 729 mmHg 88%
04:00 +14°C° 0 mm 2 m/s 729 mmHg 87%
05:00 +14°C° 0 mm 2 m/s 728 mmHg 87%
06:00 +15°C° 0 mm 2 m/s 729 mmHg 85%
07:00 +15°C° 0 mm 2 m/s 729 mmHg 83%
08:00 +16°C° 0 mm 2 m/s 729 mmHg 81%
09:00 +18°C° 0 mm 2 m/s 729 mmHg 75%
10:00 +19°C° 0 mm 2 m/s 728 mmHg 70%
11:00 +21°C° 0 mm 2 m/s 728 mmHg 64%
12:00 +23°C° 0 mm 2 m/s 727 mmHg 62%
13:00 +23°C° 0 mm 1 m/s 727 mmHg 61%
14:00 +24°C° 0 mm 1 m/s 726 mmHg 59%
15:00 +23°C° 0 mm 1 m/s 726 mmHg 63%
16:00 +21°C° 0 mm 2 m/s 726 mmHg 67%
17:00 +21°C° 0 mm 2 m/s 726 mmHg 71%
18:00 +20°C° 0 mm 2 m/s 726 mmHg 74%
19:00 +20°C° 0 mm 1 m/s 727 mmHg 77%
20:00 +19°C° 0 mm 1 m/s 727 mmHg 80%
21:00 +19°C° 0 mm 1 m/s 727 mmHg 82%
22:00 +18°C° 0 mm 1 m/s 727 mmHg 83%
23:00 +18°C° 0 mm 1 m/s 726 mmHg 85%

22 Janeiro, Sexta-feira

Tempo Temperatura Precipitação Vento Pressão Humidade
00:00 +18°C° 0 mm 1 m/s 726 mmHg 86%
01:00 +16°C° 0 mm 0 m/s 726 mmHg 87%
02:00 +15°C° 0 mm 0 m/s 725 mmHg 88%
03:00 +15°C° 0 mm 0 m/s 725 mmHg 89%
04:00 +15°C° 0 mm 0 m/s 725 mmHg 90%
05:00 +15°C° 0 mm 0 m/s 725 mmHg 91%
06:00 +18°C° 0.2 mm 1 m/s 726 mmHg 89%
07:00 +19°C° 0.2 mm 1 m/s 726 mmHg 88%
08:00 +19°C° 0.2 mm 2 m/s 727 mmHg 86%
09:00 +20°C° 0.3 mm 2 m/s 727 mmHg 81%
10:00 +22°C° 0.3 mm 1 m/s 727 mmHg 76%
11:00 +24°C° 0.3 mm 1 m/s 727 mmHg 71%
12:00 +24°C° 0 mm 2 m/s 726 mmHg 69%
13:00 +25°C° 0 mm 2 m/s 726 mmHg 67%
14:00 +26°C° 0 mm 2 m/s 725 mmHg 65%
15:00 +25°C° 0 mm 3 m/s 725 mmHg 69%
16:00 +24°C° 0 mm 3 m/s 726 mmHg 73%
17:00 +24°C° 0 mm 3 m/s 726 mmHg 76%
18:00 +22°C° 0.2 mm 3 m/s 726 mmHg 81%
19:00 +21°C° 0.2 mm 2 m/s 727 mmHg 86%
20:00 +20°C° 0.2 mm 2 m/s 727 mmHg 91%
21:00 +20°C° 0 mm 2 m/s 727 mmHg 93%
22:00 +19°C° 0 mm 2 m/s 727 mmHg 95%
23:00 +19°C° 0 mm 2 m/s 727 mmHg 97%

23 Janeiro, Sábado

Tempo Temperatura Precipitação Vento Pressão Humidade
00:00 +19°C° 0.1 mm 2 m/s 727 mmHg 96%
01:00 +19°C° 0.1 mm 2 m/s 727 mmHg 96%
02:00 +19°C° 0.1 mm 2 m/s 727 mmHg 96%
03:00 +19°C° 0.3 mm 3 m/s 727 mmHg 96%
04:00 +19°C° 0.3 mm 3 m/s 727 mmHg 96%
05:00 +18°C° 0.3 mm 4 m/s 727 mmHg 96%
06:00 +18°C° 0.8 mm 4 m/s 728 mmHg 96%
07:00 +17°C° 0.8 mm 4 m/s 728 mmHg 95%
08:00 +15°C° 0.8 mm 4 m/s 729 mmHg 95%
09:00 +17°C° 0.8 mm 4 m/s 728 mmHg 94%
10:00 +17°C° 0.8 mm 4 m/s 728 mmHg 93%
11:00 +17°C° 0.8 mm 4 m/s 728 mmHg 92%
12:00 +18°C° 0 mm 4 m/s 728 mmHg 91%
13:00 +18°C° 0 mm 4 m/s 727 mmHg 90%
14:00 +19°C° 0 mm 4 m/s 727 mmHg 89%
15:00 +18°C° 0 mm 4 m/s 727 mmHg 90%
16:00 +18°C° 0 mm 4 m/s 726 mmHg 91%
17:00 +18°C° 0 mm 4 m/s 726 mmHg 92%
18:00 +18°C° 0 mm 4 m/s 727 mmHg 93%
19:00 +18°C° 0 mm 4 m/s 727 mmHg 94%
20:00 +17°C° 0 mm 4 m/s 727 mmHg 95%
21:00 +17°C° 0.1 mm 4 m/s 727 mmHg 96%
22:00 +18°C° 0.1 mm 4 m/s 726 mmHg 96%
23:00 +18°C° 0.1 mm 4 m/s 726 mmHg 97%
Mostrar mais

Necessitamos do seu Consentimento

A Meteoprog e os seus Fornecedores de Serviços podem armazenar e aceder a dados pessoais como cookies, identificadores do dispositivo ou outras tecnologias semelhantes existentes no seu dispositivo e processar estes dados para personalizar conteúdos e anúncios, assim como funcionalidades nas redes sociais e análise de tráfego.

  • Armazenar e/ou aceder a informações no seu dispositivo

    Os cookies, identificadores do dispositivo ou outras informações podem ser armazenados ou acedidos no seu dispositivo, para os fins acima indicados.

  • Anúncios e conteúdos personalizados, medição de anúncios e conteúdos, dados sobre o público-alvo e desenvolvimento de produtos

    Os anúncios e os conteúdos podem ser personalizados com base num perfil. Podem ser adicionados dados adicionais para uma maior personalização dos anúncios e dos conteúdos. A eficácia dos anúncios e dos conteúdos pode ser medida. Podem ser obtidas informações sobre o público que visualizou os anúncios e os conteúdos. Estes dados podem ser usados para desenvolver ou melhorar sistemas, softwares ou a experiência do utilizador.

Ao clicar em "Eu concordo”, permitirá o uso de cookies, identificadores do dispositivo e web beacons mencionados ou outras tecnologias semelhantes. As configurações do navegador do seu dispositivo podem ser alteradas.

Para certos fins, podem ser invocados interesses legítimos ao invés de consentimento. Pode ler mais informação sobre este assunto na nossa Política de Privacidade e Cookies.